Terug naar catalogus

STARLINK-3136

ActiefCommunicatieVLEO
NORAD 49443·PAYLOAD·🇺🇸 United States

Gelanceerd Nov 13, 2021 vanaf Cape Canaveral Space Force Station

Loading…

Volgende Passages (komende 24 uur)

TLE

VersSource: CelesTrak SupGP

Epoch: Sep 14, 2026, 20:33 UTC

1 49443C 21104AM  26257.85673611  .00030001  00000+0  16576-2 0  2578
2 49443  53.2145  77.3756 0001825  85.9482 195.4881 15.13389628    16

Volg STARLINK-3136 in realtime met AllMySat

Download on the App Store